| time (UTC) | temp F | wind direction | speed MPH | gust MPH | rain 1hr in | rain 24hr in | rain mn in | humidity % | barometer mb |
| 20260504231103 | 70 | 175 | 0.0 | 1.0 | 0.00 | 0.00 | 0.00 | 39 | 1003.5 |
| 20260504230559 | 71 | 162 | 0.0 | 0.0 | 0.00 | 0.00 | 0.00 | 39 | 1003.8 |
| 20260504230058 | 71 | 176 | 0.0 | 1.0 | 0.00 | 0.00 | 0.00 | 36 | 1003.6 |
| 20260504225555 | 71 | 175 | 0.0 | 0.0 | 0.00 | 0.00 | 0.00 | 36 | 1003.8 |
| 20260504225052 | 71 | 176 | 1.0 | 1.0 | 0.00 | 0.00 | 0.00 | 36 | 1003.6 |
| 20260504224549 | 71 | 175 | 1.0 | 2.0 | 0.00 | 0.00 | 0.00 | 36 | 1003.8 |
| 20260504224046 | 71 | 210 | 2.0 | 2.0 | 0.00 | 0.00 | 0.00 | 35 | 1003.8 |
| 20260504223543 | 71 | 187 | 2.0 | 2.0 | 0.00 | 0.00 | 0.00 | 35 | 1003.9 |
| 20260504223038 | 72 | 186 | 1.0 | 1.0 | 0.00 | 0.00 | 0.00 | 37 | 1004.1 |
| 20260504222536 | 71 | 189 | 2.0 | 2.0 | 0.00 | 0.00 | 0.00 | 35 | 1004.5 |
| 20260504222033 | 71 | 204 | 3.0 | 3.0 | 0.00 | 0.00 | 0.00 | 36 | 1004.1 |
| 20260504221530 | 71 | 196 | 2.0 | 2.0 | 0.00 | 0.00 | 0.00 | 35 | 1004.0 |
| 20260504221027 | 71 | 220 | 2.0 | 3.0 | 0.00 | 0.00 | 0.00 | 35 | 1004.0 |
| 20260504220523 | 72 | 199 | 3.0 | 3.0 | 0.00 | 0.00 | 0.00 | 34 | 1004.1 |
| 20260504220021 | 71 | 222 | 2.0 | 2.0 | 0.00 | 0.00 | 0.00 | 35 | 1004.3 |
| 20260504215517 | 72 | 199 | 2.0 | 2.0 | 0.00 | 0.00 | 0.00 | 37 | 1004.0 |
| 20260504215014 | 71 | 215 | 3.0 | 3.0 | 0.00 | 0.00 | 0.00 | 37 | 1004.0 |
| 20260504214510 | 71 | 198 | 2.0 | 2.0 | 0.00 | 0.00 | 0.00 | 35 | 1004.0 |
| 20260504214006 | 71 | 205 | 3.0 | 3.0 | 0.00 | 0.00 | 0.00 | 37 | 1004.2 |
| 20260504213503 | 71 | 190 | 3.0 | 3.0 | 0.00 | 0.00 | 0.00 | 37 | 1004.2 |
| 20260504213001 | 71 | 194 | 2.0 | 2.0 | 0.00 | 0.00 | 0.00 | 37 | 1004.4 |
| 20260504212456 | 71 | 223 | 3.0 | 3.0 | 0.00 | 0.00 | 0.00 | 36 | 1004.3 |
| 20260504211954 | 71 | 199 | 3.0 | 3.0 | 0.00 | 0.00 | 0.00 | 36 | 1004.2 |
| 20260504211450 | 71 | 224 | 3.0 | 3.0 | 0.00 | 0.00 | 0.00 | 36 | 1004.3 |
| 20260504210948 | 71 | 215 | 5.0 | 6.0 | 0.00 | 0.00 | 0.00 | 36 | 1004.2 |
| 20260504210444 | 71 | 191 | 2.0 | 2.0 | 0.00 | 0.00 | 0.00 | 39 | 1004.5 |
| 20260504205941 | 70 | 257 | 4.0 | 5.0 | 0.00 | 0.00 | 0.00 | 38 | 1004.4 |
| 20260504205439 | 71 | 208 | 5.0 | 5.0 | 0.00 | 0.00 | 0.00 | 40 | 1004.4 |
| 20260504204937 | 70 | 205 | 3.0 | 3.0 | 0.00 | 0.00 | 0.00 | 39 | 1004.5 |
| 20260504204435 | 70 | 236 | 4.0 | 5.0 | 0.00 | 0.00 | 0.00 | 40 | 1004.3 |
| 20260504203934 | 70 | 214 | 3.0 | 3.0 | 0.00 | 0.00 | 0.00 | 38 | 1004.4 |
| 20260504203431 | 70 | 197 | 3.0 | 3.0 | 0.00 | 0.00 | 0.00 | 40 | 1004.5 |
| 20260504202927 | 71 | 205 | 4.0 | 5.0 | 0.00 | 0.00 | 0.00 | 38 | 1004.7 |
| 20260504202424 | 71 | 202 | 4.0 | 5.0 | 0.00 | 0.00 | 0.00 | 42 | 1004.4 |
| 20260504201920 | 71 | 214 | 5.0 | 6.0 | 0.00 | 0.00 | 0.00 | 40 | 1004.8 |
| 20260504201418 | 69 | 230 | 3.0 | 3.0 | 0.00 | 0.00 | 0.00 | 43 | 1004.6 |
| 20260504200915 | 70 | 235 | 4.0 | 5.0 | 0.00 | 0.00 | 0.00 | 42 | 1004.8 |
| 20260504200412 | 70 | 230 | 2.0 | 2.0 | 0.00 | 0.00 | 0.00 | 42 | 1004.9 |
| 20260504195909 | 70 | 243 | 3.0 | 5.0 | 0.00 | 0.00 | 0.00 | 43 | 1004.9 |
| 20260504195404 | 71 | 212 | 3.0 | 5.0 | 0.00 | 0.00 | 0.00 | 43 | 1004.9 |
| 20260504194901 | 70 | 201 | 2.0 | 2.0 | 0.00 | 0.00 | 0.00 | 43 | 1005.0 |
| 20260504194357 | 70 | 247 | 4.0 | 5.0 | 0.00 | 0.00 | 0.00 | 43 | 1005.1 |
| 20260504193853 | 70 | 237 | 4.0 | 5.0 | 0.00 | 0.00 | 0.00 | 44 | 1005.3 |
| 20260504193350 | 69 | 198 | 5.0 | 6.0 | 0.00 | 0.00 | 0.00 | 43 | 1005.2 |
| 20260504192849 | 70 | 260 | 6.0 | 7.0 | 0.00 | 0.00 | 0.00 | 43 | 1005.1 |
| 20260504192346 | 69 | 199 | 3.0 | 3.0 | 0.00 | 0.00 | 0.00 | 43 | 1005.4 |
| 20260504191845 | 69 | 223 | 3.0 | 3.0 | 0.00 | 0.00 | 0.00 | 43 | 1005.4 |
| 20260504191343 | 69 | 218 | 6.0 | 7.0 | 0.00 | 0.00 | 0.00 | 44 | 1005.6 |
| 20260504190838 | 69 | 247 | 7.0 | 8.0 | 0.00 | 0.00 | 0.00 | 43 | 1005.5 |
| 20260504190334 | 68 | 221 | 6.0 | 7.0 | 0.00 | 0.00 | 0.00 | 44 | 1005.7 |
| 20260504185830 | 68 | 206 | 5.0 | 6.0 | 0.00 | 0.00 | 0.00 | 45 | 1005.6 |
| 20260504185327 | 68 | 246 | 4.0 | 5.0 | 0.00 | 0.00 | 0.00 | 45 | 1005.4 |
| 20260504184823 | 68 | 243 | 4.0 | 5.0 | 0.00 | 0.00 | 0.00 | 45 | 1005.5 |
| 20260504184320 | 69 | 262 | 6.0 | 7.0 | 0.00 | 0.00 | 0.00 | 45 | 1005.6 |
| 20260504183815 | 68 | 214 | 4.0 | 5.0 | 0.00 | 0.00 | 0.00 | 48 | 1005.7 |
| 20260504183313 | 68 | 246 | 7.0 | 8.0 | 0.00 | 0.00 | 0.00 | 44 | 1005.8 |
| 20260504182811 | 68 | 247 | 6.0 | 7.0 | 0.00 | 0.00 | 0.00 | 46 | 1005.9 |
| 20260504182308 | 67 | 236 | 5.0 | 6.0 | 0.00 | 0.00 | 0.00 | 47 | 1005.8 |
| 20260504181805 | 68 | 202 | 1.0 | 2.0 | 0.00 | 0.00 | 0.00 | 47 | 1005.8 |
| 20260504181302 | 67 | 238 | 4.0 | 5.0 | 0.00 | 0.00 | 0.00 | 50 | 1005.9 |
| 20260504180801 | 68 | 245 | 6.0 | 9.0 | 0.00 | 0.00 | 0.00 | 46 | 1005.9 |
| 20260504180259 | 67 | 255 | 5.0 | 6.0 | 0.00 | 0.00 | 0.00 | 52 | 1005.9 |
| 20260504175757 | 67 | 254 | 5.0 | 6.0 | 0.00 | 0.00 | 0.00 | 51 | 1005.8 |
| 20260504175253 | 67 | 205 | 3.0 | 5.0 | 0.00 | 0.00 | 0.00 | 48 | 1005.9 |
| 20260504174751 | 66 | 206 | 4.0 | 5.0 | 0.00 | 0.00 | 0.00 | 49 | 1006.0 |
| 20260504174249 | 66 | 203 | 3.0 | 3.0 | 0.00 | 0.00 | 0.00 | 50 | 1006.0 |
| 20260504173745 | 66 | 267 | 4.0 | 5.0 | 0.00 | 0.00 | 0.00 | 48 | 1006.0 |
| 20260504173242 | 66 | 165 | 3.0 | 5.0 | 0.00 | 0.00 | 0.00 | 52 | 1005.9 |
| 20260504172739 | 65 | 205 | 3.0 | 5.0 | 0.00 | 0.00 | 0.00 | 49 | 1006.1 |
| 20260504172236 | 65 | 219 | 4.0 | 5.0 | 0.00 | 0.00 | 0.00 | 49 | 1006.0 |
| 20260504171732 | 65 | 214 | 6.0 | 7.0 | 0.00 | 0.00 | 0.00 | 50 | 1006.2 |
| 20260504171229 | 66 | 211 | 4.0 | 7.0 | 0.00 | 0.00 | 0.00 | 49 | 1006.3 |
| 20260504170726 | 65 | 238 | 6.0 | 7.0 | 0.00 | 0.00 | 0.00 | 50 | 1006.2 |
| 20260504170223 | 64 | 211 | 4.0 | 5.0 | 0.00 | 0.00 | 0.00 | 51 | 1006.1 |
| 20260504160142 | 61 | 215 | 4.0 | 5.0 | 0.00 | 0.00 | 0.00 | 52 | 1006.5 |
| 20260504151109 | 60 | 228 | 5.0 | 7.0 | 0.00 | 0.00 | 0.00 | 52 | 1007.1 |
| 20260504150607 | 59 | 221 | 3.0 | 3.0 | 0.00 | 0.00 | 0.00 | 52 | 1007.0 |
| 20260504150104 | 60 | 206 | 4.0 | 5.0 | 0.00 | 0.00 | 0.00 | 51 | 1007.1 |
| 20260504141032 | 57 | 246 | 3.0 | 3.0 | 0.00 | 0.00 | 0.00 | 55 | 1007.5 |
| 20260504140529 | 57 | 211 | 5.0 | 6.0 | 0.00 | 0.00 | 0.00 | 53 | 1007.4 |
| 20260504130453 | 53 | 208 | 3.0 | 3.0 | 0.00 | 0.00 | 0.00 | 56 | 1007.7 |
| 20260504110340 | 50 | 198 | 2.0 | 2.0 | 0.00 | 0.00 | 0.00 | 58 | 1007.8 |
| 20260504100257 | 50 | 228 | 2.0 | 2.0 | 0.00 | 0.00 | 0.00 | 57 | 1007.8 |
| 20260504081651 | 50 | 214 | 2.0 | 2.0 | 0.00 | 0.00 | 0.00 | 58 | 1008.2 |
| 20260504081147 | 50 | 208 | 3.0 | 3.0 | 0.00 | 0.00 | 0.00 | 57 | 1008.2 |
| 20260504080644 | 50 | 208 | 3.0 | 3.0 | 0.00 | 0.00 | 0.00 | 58 | 1008.2 |
| 20260504080140 | 50 | 218 | 3.0 | 3.0 | 0.00 | 0.00 | 0.00 | 58 | 1008.1 |
| 20260504070108 | 50 | 207 | 3.0 | 3.0 | 0.00 | 0.00 | 0.00 | 56 | 1008.5 |
| 20260504050456 | 51 | 198 | 2.0 | 2.0 | 0.00 | 0.00 | 0.00 | 56 | 1008.8 |
| 20260504045953 | 51 | 206 | 2.0 | 2.0 | 0.00 | 0.00 | 0.00 | 55 | 1008.8 |
| 20260504045449 | 52 | 203 | 2.0 | 2.0 | 0.00 | 0.00 | 0.00 | 55 | 1008.8 |
| 20260504044946 | 52 | 200 | 1.0 | 2.0 | 0.00 | 0.00 | 0.00 | 55 | 1008.8 |
| 20260504044443 | 52 | 211 | 2.0 | 2.0 | 0.00 | 0.00 | 0.00 | 55 | 1009.0 |
| 20260504043940 | 51 | 220 | 2.0 | 2.0 | 0.00 | 0.00 | 0.00 | 56 | 1008.7 |
| 20260504043437 | 52 | 213 | 2.0 | 2.0 | 0.00 | 0.00 | 0.00 | 57 | 1008.9 |
| 20260504042935 | 52 | 212 | 2.0 | 2.0 | 0.00 | 0.00 | 0.00 | 57 | 1008.9 |
| 20260504042431 | 52 | 200 | 2.0 | 2.0 | 0.00 | 0.00 | 0.00 | 57 | 1008.9 |
| 20260504041928 | 52 | 203 | 1.0 | 2.0 | 0.00 | 0.00 | 0.00 | 58 | 1008.8 |
| 20260504041424 | 52 | 216 | 2.0 | 2.0 | 0.00 | 0.00 | 0.00 | 56 | 1008.8 |
| 20260504040920 | 52 | 213 | 3.0 | 3.0 | 0.00 | 0.00 | 0.00 | 56 | 1008.7 |
| 20260504040418 | 52 | 203 | 2.0 | 2.0 | 0.00 | 0.00 | 0.00 | 56 | 1008.7 |
| 20260504035914 | 52 | 205 | 2.0 | 2.0 | 0.00 | 0.00 | 0.00 | 56 | 1008.9 |
| 20260504035412 | 52 | 201 | 2.0 | 2.0 | 0.00 | 0.00 | 0.00 | 57 | 1009.0 |
| 20260504034908 | 52 | 211 | 2.0 | 2.0 | 0.00 | 0.00 | 0.00 | 56 | 1009.0 |
| 20260504034406 | 52 | 212 | 2.0 | 2.0 | 0.00 | 0.00 | 0.00 | 57 | 1009.0 |
| 20260504033903 | 52 | 213 | 2.0 | 2.0 | 0.00 | 0.00 | 0.00 | 57 | 1008.9 |
| 20260504033400 | 51 | 203 | 2.0 | 2.0 | 0.00 | 0.00 | 0.00 | 58 | 1009.2 |
| 20260504032857 | 52 | 227 | 2.0 | 2.0 | 0.00 | 0.00 | 0.00 | 58 | 1009.1 |
| 20260504032354 | 52 | 204 | 1.0 | 2.0 | 0.00 | 0.00 | 0.00 | 58 | 1009.2 |
| 20260504031850 | 51 | 217 | 2.0 | 2.0 | 0.00 | 0.00 | 0.00 | 58 | 1009.1 |
| 20260504031348 | 51 | 212 | 2.0 | 2.0 | 0.00 | 0.00 | 0.00 | 59 | 1009.3 |
| 20260504030844 | 51 | 215 | 2.0 | 2.0 | 0.00 | 0.00 | 0.00 | 59 | 1009.1 |
| 20260504030342 | 51 | 211 | 2.0 | 2.0 | 0.00 | 0.00 | 0.00 | 59 | 1009.4 |
| 20260504025837 | 51 | 205 | 2.0 | 2.0 | 0.00 | 0.00 | 0.00 | 60 | 1009.3 |
| 20260504025335 | 51 | 212 | 2.0 | 3.0 | 0.00 | 0.00 | 0.00 | 60 | 1009.2 |
| 20260504024831 | 51 | 213 | 2.0 | 2.0 | 0.00 | 0.00 | 0.00 | 60 | 1009.4 |
| 20260504024327 | 51 | 226 | 2.0 | 2.0 | 0.00 | 0.00 | 0.00 | 60 | 1009.3 |
| 20260504023824 | 51 | 204 | 1.0 | 1.0 | 0.00 | 0.00 | 0.00 | 62 | 1009.5 |
| 20260504023321 | 51 | 200 | 2.0 | 2.0 | 0.00 | 0.00 | 0.00 | 62 | 1009.2 |
| 20260504022817 | 50 | 219 | 1.0 | 2.0 | 0.00 | 0.00 | 0.00 | 63 | 1009.4 |
| 20260504022314 | 50 | 194 | 1.0 | 1.0 | 0.00 | 0.00 | 0.00 | 64 | 1009.6 |
| 20260504021810 | 50 | 211 | 1.0 | 1.0 | 0.00 | 0.00 | 0.00 | 66 | 1009.7 |
| 20260504021308 | 50 | 211 | 2.0 | 2.0 | 0.00 | 0.00 | 0.00 | 65 | 1009.8 |
| 20260504020805 | 50 | 220 | 3.0 | 3.0 | 0.00 | 0.00 | 0.00 | 67 | 1009.8 |
| 20260504020302 | 49 | 227 | 3.0 | 5.0 | 0.00 | 0.00 | 0.00 | 69 | 1010.1 |
| 20260504015757 | 49 | 215 | 3.0 | 3.0 | 0.00 | 0.00 | 0.00 | 69 | 1009.9 |
| 20260504015254 | 49 | 191 | 1.0 | 2.0 | 0.00 | 0.00 | 0.00 | 71 | 1009.8 |
| 20260504014750 | 49 | 219 | 3.0 | 3.0 | 0.00 | 0.00 | 0.00 | 69 | 1010.0 |
| 20260504014246 | 50 | 262 | 5.0 | 7.0 | 0.00 | 0.00 | 0.00 | 69 | 1010.3 |
| 20260504013744 | 51 | 270 | 7.0 | 8.0 | 0.00 | 0.00 | 0.00 | 64 | 1010.3 |
| 20260504013242 | 52 | 251 | 8.0 | 9.0 | 0.00 | 0.00 | 0.00 | 60 | 1010.2 |
| 20260504012738 | 52 | 271 | 5.0 | 6.0 | 0.00 | 0.00 | 0.00 | 56 | 1009.8 |
| 20260504012236 | 52 | 177 | 4.0 | 5.0 | 0.00 | 0.00 | 0.00 | 55 | 1009.8 |
| 20260504011732 | 52 | 260 | 5.0 | 5.0 | 0.00 | 0.00 | 0.00 | 55 | 1010.0 |
| 20260504011229 | 52 | 228 | 3.0 | 5.0 | 0.00 | 0.00 | 0.00 | 54 | 1009.7 |
| 20260504010725 | 53 | 249 | 4.0 | 5.0 | 0.00 | 0.00 | 0.00 | 53 | 1009.7 |
| 20260504010221 | 53 | 223 | 3.0 | 3.0 | 0.00 | 0.00 | 0.00 | 55 | 1009.7 |
| 20260504005718 | 53 | 260 | 5.0 | 6.0 | 0.00 | 0.00 | 0.00 | 54 | 1009.4 |
| 20260504005215 | 53 | 266 | 5.0 | 6.0 | 0.00 | 0.00 | 0.00 | 54 | 1009.5 |
| 20260504004713 | 53 | 262 | 7.0 | 8.0 | 0.00 | 0.00 | 0.00 | 52 | 1009.5 |
| 20260504004210 | 53 | 275 | 9.0 | 9.0 | 0.00 | 0.00 | 0.00 | 51 | 1009.6 |
| 20260504003706 | 53 | 265 | 8.0 | 9.0 | 0.00 | 0.00 | 0.00 | 51 | 1009.4 |
| 20260504003203 | 54 | 260 | 11.0 | 11.0 | 0.00 | 0.00 | 0.00 | 50 | 1009.4 |
| 20260504002700 | 54 | 269 | 13.0 | 16.0 | 0.00 | 0.00 | 0.00 | 49 | 1009.3 |
| 20260504002157 | 54 | 261 | 12.0 | 17.0 | 0.00 | 0.00 | 0.00 | 49 | 1009.1 |
| 20260504001655 | 54 | 258 | 7.0 | 8.0 | 0.00 | 0.00 | 0.00 | 49 | 1009.1 |
| 20260504001151 | 54 | 199 | 6.0 | 7.0 | 0.00 | 0.00 | 0.00 | 48 | 1008.9 |
| 20260504000648 | 54 | 259 | 4.0 | 6.0 | 0.00 | 0.00 | 0.00 | 47 | 1009.3 |
| 20260504000145 | 54 | 254 | 4.0 | 5.0 | 0.00 | 0.00 | 0.00 | 49 | 1009.0 |
| 20260503235643 | 54 | 253 | 3.0 | 3.0 | 0.00 | 0.00 | 0.00 | 47 | 1008.7 |
| 20260503235140 | 53 | 218 | 2.0 | 2.0 | 0.00 | 0.00 | 0.00 | 47 | 1009.0 |
| 20260503234638 | 53 | 214 | 3.0 | 5.0 | 0.00 | 0.00 | 0.00 | 47 | 1008.6 |
| 20260503234136 | 53 | 209 | 3.0 | 3.0 | 0.00 | 0.00 | 0.00 | 48 | 1008.8 |
| 20260503233632 | 53 | 222 | 2.0 | 2.0 | 0.00 | 0.00 | 0.00 | 48 | 1008.5 |
| 20260503233128 | 53 | 230 | 4.0 | 5.0 | 0.00 | 0.00 | 0.00 | 48 | 1009.1 |
| 20260503232625 | 53 | 266 | 7.0 | 8.0 | 0.00 | 0.00 | 0.00 | 48 | 1009.1 |
| 20260503232122 | 53 | 252 | 5.0 | 6.0 | 0.00 | 0.00 | 0.00 | 51 | 1009.2 |
| 20260503231620 | 53 | 257 | 3.0 | 5.0 | 0.00 | 0.00 | 0.00 | 50 | 1009.4 |